Location: Newark
(25.6108°S, 54.5803°W)
Time: 13:45:06
(UTC+00:00)

Courier 1B Rocket - Visible Passes

Search period start: 31 October 2020 00:00
Search period end: 10 November 2020 00:00
Orbit: 920 x 1202 km, 28.2° (Epoch: 30 October)

Date Brightness Start Highest point End Pass type
(mag) Time Alt. Az. Time Alt. Az. Time Alt. Az.
31 Oct 6.2 06:36:27 32° NNE 06:37:31 33° NNE 06:43:59 10° E visible
31 Oct 5.4 08:23:28 10° WNW 08:31:02 76° NNE 08:38:06 10° ESE visible
01 Nov 7.1 05:39:05 20° ENE 05:39:05 20° ENE 05:42:10 10° E visible
01 Nov 5.5 07:25:26 27° NW 07:29:48 61° NNE 07:36:58 10° E visible
02 Nov 5.8 06:28:01 46° NNE 06:28:35 46° NNE 06:35:41 10° E visible
02 Nov 5.4 08:14:35 10° WNW 08:22:18 89° SSW 08:29:30 10° ESE visible
03 Nov 6.9 05:30:34 25° ENE 05:30:34 25° ENE 05:34:10 10° E visible
03 Nov 5.3 07:16:55 31° WNW 07:20:59 77° NNE 07:28:23 10° ESE visible
04 Nov 5.4 06:19:26 62° N 06:19:42 62° NNE 06:27:10 10° E visible
04 Nov 5.5 08:05:49 10° W 08:13:36 79° S 08:20:54 10° ESE visible
05 Nov 6.7 05:21:55 30° ENE 05:21:55 30° ENE 05:25:48 10° E visible
05 Nov 5.3 07:08:16 33° WNW 07:12:13 89° SSW 07:19:44 10° ESE visible
06 Nov 5.2 06:10:44 78° N 06:10:51 78° NNE 06:18:32 10° ESE visible
06 Nov 5.6 07:57:06 10° W 08:04:55 74° S 08:12:19 10° E visible
07 Nov 6.6 05:13:11 33° E 05:13:11 33° E 05:17:13 10° E visible
07 Nov 5.4 06:59:31 33° W 07:03:29 79° S 07:11:06 10° ESE visible
08 Nov 7.8 04:15:37 11° E 04:15:37 11° E 04:15:45 10° E visible
08 Nov 5.3 06:01:58 87° SW 06:02:03 88° SSW 06:09:50 10° ESE visible
08 Nov 5.6 07:48:24 10° W 07:56:15 73° S 08:03:44 10° E visible
09 Nov 6.6 05:04:25 35° E 05:04:25 35° E 05:08:31 10° ESE visible
09 Nov 5.5 06:50:46 32° W 06:54:47 74° S 07:02:28 10° E visible
